マクノート彗星

C/2005 S4 ( McNaught )

English version
Home page
Updated on March 23, 2014

---------------------------------------------------------------------

・ プロフィール

発見日 2005年9月30日
発見光度 18.9等
発見者 R. H. McNaught (Siding Spring Survey)

・ 写真集

・ 軌道要素

Epoch 2007 June 29.0 TT = JDT 2454280.5
T 2007 July 18.67707 TT                                 MPC
q   5.8500878            (2000.0)            P               Q
z  +0.0001799      Peri.   31.45691     +0.52975056     -0.56457841
 +/-0.0000009      Node   318.29016     -0.82841392     -0.18436035
e   0.9989474      Incl.  107.95860     +0.18191954     +0.80452625
From 520 observations 2005 July 27-2009 July 23, mean residual 0".6.

・ 星図

・ 光度変化

        m1 =  5.5 + 5 logΔ + 10.0 log r  [ ,0]  (              〜2007年 7月18日)
        m1 = -2.2 + 5 logΔ + 20   log r  [0, ]  (2007年 7月18日〜              )

---------------------------------------------------------------------

軌道要素はM.P.E.C. 2014-E18に掲載されたものです。
星図は StellaNavigator Ver.2.0 for Windows (アストロアーツ 編著 / アスキー出版局刊) で作成したものです。
光度グラフはComet for Windowsで作成したものです。

---------------------------------------------------------------------

Copyright(C) Seiichi Yoshida (comet@aerith.net). All rights reserved.